Wind_Speed
23 23 24 24 25 25 23 21 20 20 21 21 22 22 21 20 19 19 18 17 16 15 15 14 14 14 13 13 13 13 13 12 11 10 10 9 9 9 9 9 8 8 7 7 7 6 6 6 6
24 24 25 26 26 25 23 21 21 21 22 23 23 23 22 22 21 21 19 18 18 17 17 16 16 16 16 15 14 14 14 14 13 12 12 11 11 10 10 10 10 9 9 8 8 8 7 7 7
26 26 27 27 27 25 24 22 22 23 24 24 25 25 24 23 23 22 21 20 20 19 19 19 19 18 18 18 17 16 16 15 15 14 14 13 13 12 12 12 12 11 11 10 10 9 9 8 8
28 28 28 29 28 26 25 24 24 25 26 26 26 27 26 25 25 25 24 23 22 22 21 21 20 20 20 20 19 18 18 17 17 16 16 15 15 14 14 13 13 13 13 12 12 11 11 10 9
30 30 30 30 29 27 26 26 26 26 27 27 28 28 27 27 27 27 26 25 25 24 23 23 23 22 22 22 21 21 20 20 19 18 18 17 17 16 15 15 14 14 13 13 13 12 12 11 11
31 32 32 31 29 28 28 28 28 28 28 29 29 29 28 29 29 29 29 28 27 27 26 25 25 24 24 24 23 23 23 22 21 21 20 19 18 18 17 16 16 15 15 14 14 14 13 13 12
33 33 33 32 31 30 29 29 30 30 30 30 31 30 30 30 30 30 30 30 30 29 28 28 27 26 26 25 25 25 25 24 23 23 22 21 20 19 18 18 17 17 16 16 15 15 14 14 13
34 35 34 33 32 31 31 31 31 31 31 31 31 31 31 30 31 31 31 32 31 31 30 30 29 28 28 28 27 27 26 26 25 25 24 23 22 21 20 19 19 19 18 17 16 15 15 15 14
36 36 35 34 33 33 33 33 32 32 32 32 32 32 32 31 31 31 32 32 33 32 32 31 31 30 30 29 29 29 28 27 26 26 26 25 24 22 21 21 20 20 20 19 18 17 16 16 16
37 37 35 34 34 35 34 34 34 34 33 33 33 33 33 32 31 32 32 33 34 34 33 33 33 33 32 31 31 30 29 28 28 28 27 26 25 24 23 22 22 21 21 20 19 18 18 17 17
38 37 35 35 35 36 36 35 35 35 34 33 34 34 33 32 32 31 32 33 34 34 34 34 34 34 33 32 32 32 31 30 29 28 28 28 27 26 25 24 23 23 23 22 21 20 19 19 19
39 38 37 36 37 37 37 36 36 35 34 35 35 34 34 33 32 32 32 32 33 33 33 34 34 33 32 31 31 32 31 31 30 29 29 29 28 28 27 26 25 25 24 24 23 22 21 21 21
40 39 39 39 38 38 38 37 37 36 35 36 35 35 34 34 33 33 32 32 33 34 34 34 34 34 33 31 30 31 31 32 32 31 30 30 30 29 28 28 27 26 25 25 24 24 23 23 23
41 40 40 40 40 39 39 39 38 35 36 36 36 36 35 34 34 34 33 33 33 34 34 34 34 34 34 33 32 32 32 32 33 32 32 32 31 31 30 29 28 27 27 26 26 25 25 25 24
43 42 41 41 41 41 41 40 38 37 38 38 37 36 36 35 35 34 34 33 34 34 34 34 34 34 35 34 33 32 32 33 33 33 32 32 32 32 31 30 29 28 28 28 27 27 26 26 26
44 44 43 41 42 42 43 41 37 39 39 38 38 37 36 36 35 34 34 33 34 34 34 34 34 35 35 35 33 33 33 34 34 34 33 33 33 31 31 31 30 30 29 29 29 28 27 27 27
45 45 43 42 42 43 44 41 38 40 40 39 38 37 37 36 36 35 34 34 34 34 34 34 35 35 35 35 34 34 34 35 35 34 34 34 34 32 31 32 32 30 31 31 30 29 29 28 28
45 44 43 43 43 43 43 42 39 40 40 39 38 37 37 37 36 35 34 34 34 34 33 34 35 35 35 36 35 35 35 35 35 36 36 36 35 34 33 33 34 32 31 31 32 30 30 29 29
46 45 44 43 43 44 43 42 40 40 40 39 37 37 37 36 36 36 35 34 34 34 33 34 35 35 35 35 35 35 35 35 35 35 36 36 35 34 34 34 35 33 31 31 32 32 31 31 31
47 46 45 45 44 44 43 42 40 40 39 38 37 37 37 36 36 35 35 34 34 34 34 33 33 34 34 34 34 34 35 35 35 36 35 35 36 35 35 35 36 34 33 33 33 33 33 32 32
48 47 45 44 44 44 44 42 39 38 38 38 38 37 37 36 35 35 35 34 34 34 34 34 33 34 34 34 34 35 34 34 34 34 35 35 35 36 36 36 36 35 34 34 34 34 34 33 32
47 46 46 45 45 45 44 45 40 38 38 37 36 36 36 35 35 35 35 35 34 34 34 34 34 34 34 34 35 34 34 33 33 34 34 34 34 36 36 36 36 34 33 34 35 35 34 33 33
47 47 47 47 47 47 45 46 42 39 37 35 35 35 35 35 35 36 35 35 34 34 34 35 35 34 34 34 34 34 34 34 33 33 34 35 35 35 36 35 35 34 34 34 35 35 35 35 34
48 48 48 48 48 49 46 46 45 40 37 35 35 35 34 35 35 35 35 35 35 34 34 35 36 36 34 33 33 34 34 34 34 34 34 34 35 35 36 36 35 34 34 34 35 35 35 35 35
48 47 47 48 49 50 46 47 45 40 38 36 35 35 35 35 35 36 36 36 34 33 33 34 35 36 35 33 33 34 34 34 34 34 34 35 36 36 36 36 36 35 35 35 36 35 35 36 37
45 46 48 49 49 49 47 47 44 41 39 37 36 35 35 35 35 36 36 36 35 34 34 34 35 36 35 34 33 34 34 35 35 34 35 35 37 38 37 36 36 36 36 37 37 37 36 36 37
42 44 44 46 48 48 48 47 44 42 40 38 37 36 36 35 36 36 36 36 35 35 35 35 34 35 36 35 35 34 34 35 35 35 34 34 36 38 39 37 37 37 37 38 39 39 39 38 38
41 40 41 44 46 47 48 46 44 41 40 39 38 37 36 36 37 36 35 35 35 35 35 36 35 35 36 36 35 35 35 35 35 36 36 36 36 38 39 40 39 38 38 39 40 40 41 41 40
39 40 41 42 45 46 47 46 43 41 39 39 39 38 37 37 37 36 36 35 35 35 35 35 36 36 36 36 35 35 35 36 36 36 37 37 38 39 40 40 40 40 40 40 40 40 40 41 41
37 39 39 41 43 45 46 45 43 41 40 38 38 38 37 37 37 37 37 36 36 36 36 37 36 36 36 36 36 36 35 36 36 37 38 38 39 39 40 41 41 41 41 42 41 41 42 42 43
Wind_Direction
249 249 249 249 250 251 252 252 250 248 248 248 250 251 251 251 251 252 253 252 251 248 247 246 246 245 244 244 245 244 243 243 242 241 241 242 242 242 241 243 245 246 245 246 247 244 246 249 249
249 250 249 250 251 253 253 254 252 249 249 248 249 251 252 251 252 252 252 252 251 250 249 246 246 245 245 245 245 246 245 245 245 244 244 244 245 246 244 244 246 248 249 250 251 253 251 250 251
250 251 251 251 252 254 256 254 252 250 249 249 249 250 251 252 253 253 252 251 250 250 249 247 245 244 245 245 245 246 246 246 246 246 247 247 247 247 247 246 247 249 250 251 253 255 252 251 253
251 251 252 253 253 254 255 255 253 251 250 250 251 251 252 253 254 253 252 251 250 249 249 247 245 245 246 247 247 247 247 247 247 247 248 248 248 248 247 246 247 249 251 251 253 254 251 250 252
251 252 253 253 254 255 255 255 253 252 251 251 252 253 254 254 255 254 252 252 250 248 248 247 246 246 246 247 248 247 247 247 246 246 248 248 248 248 247 247 246 248 250 251 252 253 250 250 252
252 253 254 254 254 255 255 255 254 253 252 252 253 253 254 255 255 255 254 253 251 248 248 248 247 247 247 247 247 247 247 247 246 246 247 249 248 248 247 246 247 248 250 252 252 252 250 249 251
254 254 254 254 254 254 255 255 254 254 253 253 254 254 254 255 256 256 256 254 252 249 248 247 246 247 247 247 246 246 246 247 247 246 246 247 248 248 248 247 248 250 251 252 254 252 249 249 250
255 256 255 255 255 255 255 255 255 254 254 254 255 255 255 255 256 257 257 255 253 250 248 247 247 247 247 247 247 247 247 246 246 246 245 245 245 247 249 249 251 251 251 252 254 252 250 249 249
255 256 256 257 256 255 254 254 254 254 254 254 255 256 255 255 256 256 256 255 253 251 249 247 247 247 247 248 247 247 246 246 245 244 243 243 244 246 248 250 252 251 250 252 253 251 251 250 249
256 256 257 257 256 255 254 254 253 253 253 254 255 255 256 257 257 256 255 254 254 252 250 247 246 245 246 247 246 245 245 244 243 242 242 242 243 244 246 248 250 250 251 251 251 251 250 249 248
256 257 257 256 256 255 255 254 253 252 253 254 255 256 257 258 258 257 255 254 253 252 251 247 244 244 245 246 245 244 244 243 242 242 241 241 242 244 246 247 249 250 250 249 249 249 249 249 248
256 256 256 256 256 255 255 254 253 253 252 254 255 255 256 258 258 258 256 254 252 250 248 246 244 243 243 244 244 243 242 241 241 242 241 240 241 242 244 246 248 249 249 248 248 248 249 250 249
256 255 255 255 255 255 254 254 253 253 253 253 254 255 255 257 258 258 256 253 250 249 248 246 243 242 240 242 243 243 241 241 240 241 241 240 239 241 243 244 245 247 247 247 247 248 250 250 250
256 256 255 254 254 254 254 253 253 253 254 253 254 256 256 256 257 256 254 252 249 248 248 247 244 242 240 241 243 243 242 242 240 240 241 239 238 240 241 241 242 244 245 246 246 248 251 253 251
255 255 254 254 254 254 254 252 253 253 253 254 255 256 256 255 255 255 253 250 248 248 247 247 245 242 240 240 242 243 243 242 241 240 240 239 237 237 239 239 240 241 243 244 246 249 251 252 252
255 255 254 254 255 254 254 252 252 253 254 254 254 255 254 253 253 254 252 249 248 247 246 246 244 242 241 241 243 243 244 242 240 237 237 236 235 236 239 238 238 239 242 244 246 248 252 254 253
254 255 255 254 254 255 255 253 250 253 253 253 253 253 252 252 252 252 251 249 247 246 245 244 244 243 242 242 243 243 242 241 240 237 235 234 234 237 239 238 237 238 242 245 246 247 250 253 253
255 256 255 255 255 255 255 253 250 250 251 251 252 252 251 250 250 250 250 248 246 245 245 244 243 242 242 243 244 243 242 240 240 239 236 235 236 238 237 237 237 238 242 245 246 247 250 253 252
254 254 254 254 254 254 254 252 250 249 249 249 251 252 251 250 249 249 248 247 246 246 245 245 244 243 242 244 244 243 242 242 241 238 235 235 236 237 237 238 237 239 241 243 245 248 251 252 254
252 253 253 253 254 254 253 251 249 248 249 249 249 250 250 249 248 248 248 247 246 244 245 244 243 244 242 243 244 243 242 241 238 235 234 235 236 237 238 238 237 239 241 242 246 250 252 252 255
250 251 252 253 253 253 252 249 247 247 248 248 248 249 249 248 248 247 246 245 244 243 244 241 241 241 241 242 243 243 242 241 239 237 236 237 238 238 238 237 236 238 242 244 248 251 252 253 255
249 249 250 251 251 251 251 250 245 246 247 248 249 249 248 248 247 245 244 243 244 244 243 241 240 240 242 242 243 242 243 242 240 237 238 239 239 238 237 236 237 239 242 245 247 250 251 253 255
247 247 248 249 250 250 249 251 246 244 245 246 247 248 246 246 245 243 242 242 243 244 244 241 240 239 241 243 243 243 244 243 243 241 239 239 239 237 236 237 238 239 243 246 247 250 253 254 256
247 247 247 248 249 249 248 250 247 244 243 243 245 246 245 245 245 242 242 243 244 245 245 241 239 239 241 241 241 242 243 243 244 242 240 239 238 238 239 240 240 241 244 247 249 252 254 256 257
244 244 246 247 247 248 247 249 248 246 243 243 244 245 245 245 244 242 241 243 244 244 245 243 239 239 240 241 241 242 242 242 242 241 240 240 240 241 241 240 241 244 245 247 250 252 256 258 259
244 244 244 246 247 248 248 249 248 247 245 243 243 244 244 244 244 243 243 243 243 243 244 242 240 239 239 240 239 239 240 241 241 242 242 242 241 240 240 242 244 246 247 248 251 253 257 260 261
241 242 243 246 247 248 247 247 247 246 245 243 243 243 243 243 244 244 243 242 243 244 244 243 241 241 240 239 240 240 240 241 241 242 242 244 243 241 242 245 248 249 249 250 252 254 257 259 261
240 239 240 241 243 245 246 246 246 245 245 244 243 243 243 243 243 244 244 244 244 244 243 242 241 241 240 239 240 240 240 241 241 242 244 246 245 244 244 247 249 248 249 249 252 254 257 259 261
239 238 239 242 244 244 245 245 245 246 246 246 244 243 243 243 243 243 243 244 243 243 241 241 240 240 240 240 240 240 239 240 242 243 245 245 246 246 247 248 248 247 249 250 252 255 257 259 261
239 239 238 241 242 244 245 245 244 245 245 245 245 243 243 242 241 241 242 243 243 241 240 240 239 240 241 240 240 241 242 243 243 244 245 245 244 245 247 248 247 248 249 251 254 256 259 261 263
Height
5807 5808 5809 5811 5812 5813 5815 5818 5820 5821 5822 5823 5824 5825 5827 5829 5831 5834 5834 5834 5835 5837 5838 5839 5841 5842 5843 5845 5846 5847 5849 5850 5852 5853 5854 5855 5857 5858 5859 5860 5861 5862 5863 5864 5865 5866 5867 5868 5869
5802 5803 5805 5806 5806 5808 5811 5814 5816 5817 5817 5818 5819 5820 5822 5824 5826 5828 5829 5830 5832 5833 5834 5836 5837 5839 5840 5842 5843 5845 5846 5848 5849 5850 5852 5853 5854 5856 5857 5858 5860 5861 5862 5863 5864 5865 5866 5866 5867
5797 5798 5800 5801 5802 5804 5807 5809 5811 5811 5812 5813 5814 5815 5817 5820 5821 5823 5825 5826 5828 5829 5830 5832 5834 5835 5837 5838 5840 5841 5843 5845 5846 5848 5849 5850 5852 5853 5855 5856 5858 5859 5860 5861 5862 5863 5864 5865 5865
5792 5793 5795 5796 5797 5800 5802 5804 5805 5806 5807 5808 5809 5811 5813 5815 5816 5818 5820 5821 5823 5824 5826 5827 5829 5831 5833 5834 5836 5838 5839 5841 5843 5844 5846 5847 5849 5850 5852 5853 5855 5856 5858 5859 5860 5861 5862 5863 5864
5786 5788 5789 5790 5793 5795 5796 5797 5798 5800 5801 5802 5804 5805 5808 5809 5810 5812 5814 5816 5818 5819 5821 5823 5824 5826 5828 5830 5832 5834 5835 5837 5839 5841 5842 5844 5846 5847 5849 5850 5852 5853 5855 5856 5857 5858 5860 5861 5862
5780 5781 5783 5785 5787 5789 5790 5791 5792 5794 5795 5796 5798 5800 5802 5803 5804 5806 5808 5810 5812 5814 5815 5817 5819 5821 5823 5825 5827 5829 5831 5832 5834 5836 5838 5840 5842 5844 5845 5847 5849 5851 5852 5853 5855 5856 5857 5858 5859
5774 5775 5776 5779 5781 5782 5784 5784 5786 5787 5788 5790 5791 5793 5795 5797 5798 5800 5801 5803 5805 5807 5809 5811 5813 5815 5817 5819 5821 5823 5825 5827 5830 5832 5834 5836 5838 5840 5842 5844 5846 5847 5849 5850 5851 5853 5854 5855 5857
5766 5768 5769 5772 5774 5776 5777 5777 5779 5780 5782 5783 5784 5786 5789 5791 5792 5793 5794 5795 5797 5800 5802 5804 5807 5809 5811 5813 5815 5817 5819 5822 5824 5826 5829 5831 5833 5835 5838 5840 5842 5844 5845 5847 5848 5849 5851 5852 5854
5758 5761 5762 5765 5767 5768 5769 5770 5771 5773 5774 5776 5778 5779 5781 5783 5784 5786 5787 5788 5790 5792 5795 5797 5799 5802 5804 5807 5809 5811 5813 5815 5818 5820 5823 5826 5828 5831 5833 5835 5838 5839 5841 5843 5845 5846 5848 5849 5851
5750 5752 5756 5758 5759 5759 5761 5762 5763 5765 5767 5769 5770 5772 5773 5775 5777 5778 5780 5781 5783 5785 5787 5789 5792 5794 5796 5799 5802 5804 5806 5809 5811 5814 5817 5820 5823 5826 5828 5831 5833 5835 5837 5839 5840 5842 5844 5846 5847
5742 5745 5748 5749 5750 5751 5752 5754 5755 5757 5760 5762 5763 5764 5765 5767 5769 5770 5772 5774 5775 5777 5779 5781 5783 5786 5788 5791 5794 5797 5800 5802 5805 5808 5811 5814 5817 5820 5823 5825 5828 5830 5832 5834 5836 5838 5840 5842 5843
5734 5737 5738 5740 5740 5742 5743 5745 5747 5750 5753 5753 5754 5756 5758 5759 5761 5762 5764 5765 5767 5769 5771 5773 5776 5778 5781 5784 5787 5789 5793 5796 5799 5801 5804 5807 5811 5814 5817 5820 5823 5825 5827 5829 5832 5834 5836 5837 5839
5724 5727 5728 5730 5731 5733 5734 5736 5738 5742 5744 5745 5746 5748 5750 5751 5753 5754 5756 5757 5759 5761 5763 5765 5768 5771 5773 5776 5780 5783 5786 5788 5791 5794 5797 5801 5804 5808 5811 5814 5817 5819 5822 5824 5827 5829 5831 5833 5834
5715 5716 5718 5720 5722 5724 5725 5727 5730 5734 5734 5736 5738 5740 5742 5743 5745 5746 5748 5749 5751 5754 5756 5758 5760 5763 5766 5769 5772 5776 5779 5781 5784 5787 5790 5793 5797 5800 5803 5807 5810 5813 5816 5819 5821 5824 5826 5827 5829
5704 5706 5708 5711 5712 5714 5715 5719 5723 5725 5725 5727 5729 5731 5733 5735 5736 5738 5740 5742 5744 5746 5748 5750 5753 5756 5759 5762 5765 5768 5771 5774 5776 5779 5782 5785 5789 5793 5796 5800 5804 5807 5810 5813 5815 5818 5820 5822 5823
5693 5695 5699 5703 5703 5704 5706 5711 5716 5715 5716 5718 5720 5722 5724 5726 5728 5730 5732 5734 5736 5738 5741 5743 5746 5749 5752 5754 5757 5760 5763 5766 5768 5771 5774 5778 5782 5786 5790 5794 5797 5801 5804 5806 5809 5812 5814 5816 5817
5682 5685 5689 5693 5693 5694 5695 5701 5706 5705 5706 5709 5711 5713 5715 5717 5719 5722 5724 5725 5727 5730 5732 5736 5739 5741 5744 5747 5750 5752 5755 5757 5760 5763 5767 5771 5774 5778 5782 5786 5790 5794 5797 5800 5803 5805 5807 5809 5811
5673 5676 5679 5682 5683 5684 5685 5690 5695 5695 5696 5699 5702 5704 5706 5709 5711 5713 5715 5717 5719 5721 5724 5728 5730 5733 5737 5740 5742 5744 5747 5750 5753 5755 5759 5763 5767 5771 5775 5778 5783 5786 5790 5793 5796 5799 5801 5802 5804
5661 5664 5667 5671 5671 5673 5675 5679 5683 5685 5687 5690 5693 5695 5698 5701 5703 5705 5707 5710 5712 5714 5717 5720 5722 5725 5729 5732 5734 5737 5740 5743 5745 5748 5751 5755 5759 5763 5767 5771 5775 5779 5782 5785 5789 5792 5794 5795 5797
5648 5651 5656 5659 5660 5662 5664 5668 5672 5675 5678 5682 5684 5687 5689 5692 5694 5697 5699 5702 5704 5707 5710 5711 5715 5718 5721 5724 5727 5729 5732 5734 5737 5740 5743 5747 5751 5755 5759 5763 5767 5771 5774 5778 5782 5785 5787 5789 5790
5636 5641 5645 5647 5649 5650 5653 5657 5663 5667 5670 5673 5676 5678 5681 5683 5686 5689 5691 5694 5697 5700 5703 5705 5707 5710 5713 5716 5719 5721 5724 5727 5730 5733 5737 5740 5744 5748 5752 5756 5760 5764 5767 5771 5774 5777 5780 5782 5784
5625 5630 5633 5634 5636 5639 5643 5645 5655 5658 5661 5665 5668 5670 5673 5675 5678 5681 5684 5687 5690 5693 5695 5697 5700 5703 5706 5709 5712 5714 5717 5720 5723 5726 5730 5733 5736 5740 5744 5749 5752 5757 5760 5764 5767 5770 5772 5775 5776
5614 5618 5620 5623 5624 5627 5632 5635 5644 5649 5654 5658 5661 5662 5665 5667 5670 5673 5677 5680 5682 5685 5687 5690 5692 5695 5698 5702 5705 5707 5711 5714 5716 5719 5723 5726 5730 5734 5738 5742 5745 5749 5753 5756 5759 5762 5765 5767 5769
5602 5606 5608 5610 5612 5615 5624 5626 5632 5641 5646 5650 5652 5654 5656 5659 5662 5665 5669 5672 5675 5677 5679 5682 5685 5688 5692 5695 5698 5701 5704 5707 5710 5713 5717 5720 5724 5727 5731 5734 5738 5742 5746 5749 5752 5755 5757 5760 5761
5590 5594 5596 5598 5600 5606 5614 5615 5623 5632 5637 5641 5643 5646 5648 5651 5654 5657 5660 5663 5667 5669 5672 5674 5678 5681 5685 5688 5691 5694 5697 5700 5703 5707 5711 5714 5718 5721 5725 5728 5732 5735 5738 5741 5744 5747 5749 5751 5753
5579 5583 5587 5589 5592 5598 5602 5605 5615 5621 5626 5630 5634 5637 5639 5642 5646 5649 5652 5656 5659 5662 5664 5667 5671 5674 5677 5680 5684 5687 5690 5694 5697 5700 5704 5707 5711 5715 5718 5722 5726 5728 5731 5733 5736 5739 5741 5743 5745
5568 5572 5577 5580 5583 5587 5590 5597 5605 5610 5616 5620 5624 5627 5631 5634 5637 5641 5644 5648 5651 5654 5657 5660 5663 5666 5669 5673 5676 5679 5683 5686 5690 5693 5697 5701 5705 5708 5711 5715 5718 5721 5723 5726 5728 5731 5733 5734 5736
5558 5562 5566 5568 5572 5575 5581 5588 5596 5602 5606 5611 5615 5618 5622 5626 5629 5633 5636 5640 5643 5646 5649 5653 5656 5659 5662 5665 5669 5672 5676 5679 5682 5686 5690 5693 5697 5701 5703 5707 5709 5712 5715 5718 5720 5722 5724 5726 5727
5548 5552 5555 5559 5563 5567 5572 5581 5587 5593 5597 5601 5606 5609 5613 5617 5621 5624 5628 5631 5635 5638 5641 5645 5648 5651 5654 5658 5661 5665 5668 5672 5675 5678 5682 5685 5689 5692 5695 5698 5701 5704 5706 5709 5711 5713 5715 5716 5717
5538 5543 5547 5551 5554 5558 5563 5573 5578 5583 5587 5591 5596 5600 5604 5608 5612 5616 5619 5623 5626 5630 5633 5637 5640 5644 5647 5651 5654 5657 5660 5664 5667 5670 5674 5677 5680 5683 5686 5689 5691 5694 5697 5699 5702 5703 5705 5706 5707